map of TRK home
Great Circle Mapper logo
TRK - Airport
Location
City:  Tarakan, Kalimantan (Borneo), Indonesia
Name:Juwata
ICAO / IATA:WALR / TRK

Details
Type:Airport (Aerodrome, Airfield)
Use:International (customs port of entry)
Latitude:319'36"N (3.326694)
Longitude:11733'56"E (117.565569)
Datum:WGS 1984
Elevation:20 ft (6 m)
Runways:1
Longest:6045 × 95 ft (1843 × 29 m), paved

Time
Time Zone:UTC+8
Local Time:

Weather
TAF:WALR 010500Z 0106/0206 31006KT 9999 SCT015
BECMG 0111/0112 12005KT 8000
TEMPO 0116/0119 27005KT 5000 -RA BKN015
BECMG 0122/0123 00000KT 8000 SCT015

Related Locations
Nearby:
Farthest:CIZ: 12363 mi / 19896 km
Coari, AM, BR

Find:

   beyond  
but within

Other Information
Maps:
NOTAMs:
Links:
Sources:

  
flag of Indonesia   

Sectional Chart

Flight Planning
at skyvector.com

Satellite Image

Google Maps Satellite View

 

Copyright © 2004-2014 Karl L. Swartz. All rights reserved.
The Great Circle Mapper name and logo are trademarks of the Great Circle Mapper.
All other trademarks mentioned herein belong to their respective owners.
Please see credits for attibutions and further copyright information.

  Follow gcmap on Facebook Follow gcmap on Twitter

hCard Microformat

Geo Microformat